Departure
Örebro Airport
Örebro, SE
cloud Weather
- Wind
- 220° / 7 kt
- Visibility
- 6 SM
- Ceiling
- CLR
- Temp / Dew
- 13°C / 11°C
- Altimeter
- 29.91 inHg
Obs: 2026-09-06T07:20:00.000Z
Raw METAR
METAR ESOE 060720Z AUTO 22007KT 9999 NCD 13/11 Q1013
route Route
Departure
Örebro, SE
Obs: 2026-09-06T07:20:00.000Z
METAR ESOE 060720Z AUTO 22007KT 9999 NCD 13/11 Q1013
Arrival
Örebro, SE
Obs: 2026-09-06T07:20:00.000Z
METAR ESOE 060720Z AUTO 22007KT 9999 NCD 13/11 Q1013
| Airline | Flights shown |
|---|---|
| European Air Transport | 40 |
| Silk Way Airlines | 2 |
| Date | Flight | Aircraft | Takeoff | Landing | Duration | Arr Δ |
|---|---|---|---|---|---|---|
| 2026-07-24 | BCS51M | 4520C4 | Jul 24, 18:05 UTC | Jul 24, 19:20 UTC | 1h 15m | - |
| 2026-07-23 | BCS51M | 4520C4 | Jul 23, 18:25 UTC | Jul 23, 19:30 UTC | 1h 5m | - |
| 2026-07-22 | BCS51M | 4520C4 | Jul 22, 17:45 UTC | Jul 22, 19:05 UTC | 1h 20m | - |
| 2026-07-10 | SEVVK | 4ADACB | Jul 10, 12:55 UTC | Jul 10, 13:05 UTC | 10m | - |
| 2026-07-04 | SEVVK | 4ADACB | Jul 4, 13:25 UTC | Jul 4, 13:55 UTC | 30m | - |
| 2026-07-04 | SEVVK | 4ADACB | Jul 4, 10:30 UTC | Jul 4, 11:50 UTC | 1h 20m | - |
| 2026-07-04 | SEMCO | 4AB46F | Jul 4, 09:30 UTC | Jul 4, 10:00 UTC | 30m | - |
| 2026-07-01 | SEVVK | 4ADACB | Jul 1, 17:00 UTC | Jul 1, 17:35 UTC | 35m | - |
| 2026-06-22 | BCS51M | 3C542F | Jun 22, 18:35 UTC | Jun 22, 19:05 UTC | 30m | - |
| 2026-06-18 | BCS51M | 3C5434 | Jun 18, 18:15 UTC | Jun 18, 18:40 UTC | 25m | - |
| 2026-06-17 | BCS51M | 3C542D | Jun 17, 18:25 UTC | Jun 17, 18:50 UTC | 25m | - |
| 2026-06-16 | BCS51M | 3C1BB1 | Jun 16, 18:29 UTC | Jun 16, 18:55 UTC | 25m | - |
| 2026-06-15 | BCS51M | 3C1BAC | Jun 15, 18:25 UTC | Jun 15, 18:55 UTC | 30m | - |
| 2026-06-12 | BCS51M | 3C1BB0 | Jun 12, 18:20 UTC | Jun 12, 18:50 UTC | 30m | - |
| 2026-06-11 | BCS51M | 3C1BAC | Jun 11, 18:15 UTC | Jun 11, 18:40 UTC | 25m | - |
| 2026-06-10 | BCS51M | 3C5426 | Jun 10, 18:10 UTC | Jun 10, 18:40 UTC | 30m | - |
| 2026-06-09 | BCS51M | 3C1BAE | Jun 9, 19:05 UTC | Jun 9, 19:35 UTC | 30m | - |
| 2026-06-08 | BCS51M | 3C1BB1 | Jun 8, 18:20 UTC | Jun 8, 18:45 UTC | 25m | - |
| 2026-06-05 | BCS51M | 3C5423 | Jun 5, 18:20 UTC | Jun 5, 18:45 UTC | 25m | - |
| 2026-06-04 | BCS51M | 3C5434 | Jun 4, 18:20 UTC | Jun 4, 18:50 UTC | 30m | - |
| 2026-06-03 | BCS51M | 3C1BB0 | Jun 3, 18:15 UTC | Jun 3, 18:40 UTC | 25m | - |
| 2026-06-02 | BCS51M | 3C1BAE | Jun 2, 18:10 UTC | Jun 2, 18:40 UTC | 30m | - |
| 2026-06-01 | BCS51M | 3C5428 | Jun 1, 18:20 UTC | Jun 1, 18:45 UTC | 25m | - |
| 2026-05-31 | AZQ4332 | 600864 | May 31, 20:30 UTC | May 31, 23:30 UTC | 3h 0m | - |
| 2026-05-30 | SEVVK | 4ADACB | May 30, 13:40 UTC | May 30, 14:25 UTC | 45m | - |
| 2026-05-29 | BCS51M | 3C1BAE | May 29, 18:30 UTC | May 29, 18:55 UTC | 25m | - |
| 2026-05-28 | BCS51M | 3C5423 | May 28, 18:20 UTC | May 28, 18:55 UTC | 35m | - |
| 2026-05-27 | BCS51M | 3C1BAC | May 27, 18:15 UTC | May 27, 18:40 UTC | 25m | - |
| 2026-05-26 | BCS51M | 3C1BB0 | May 26, 18:14 UTC | May 26, 18:45 UTC | 30m | - |
| 2026-05-25 | BCS51M | 3C542F | May 25, 18:25 UTC | May 25, 18:55 UTC | 30m | - |
| 2026-05-22 | BCS51M | 3C1BB0 | May 22, 18:15 UTC | May 22, 18:40 UTC | 25m | - |
| 2026-05-21 | BCS51M | 3C1BAC | May 21, 18:20 UTC | May 21, 18:45 UTC | 25m | - |
| 2026-05-20 | BCS51M | 3C5431 | May 20, 18:20 UTC | May 20, 18:45 UTC | 25m | - |
| 2026-05-19 | BCS51M | 3C5424 | May 19, 18:30 UTC | May 19, 19:00 UTC | 30m | - |
| 2026-05-18 | BCS51M | 3C5424 | May 18, 18:50 UTC | May 18, 19:15 UTC | 25m | - |
| 2026-05-16 | AZQ4332 | 600864 | May 16, 18:35 UTC | May 16, 19:50 UTC | 1h 15m | - |
| 2026-05-15 | BCS51M | 3C1BAF | May 15, 18:30 UTC | May 15, 18:55 UTC | 25m | - |
| 2026-05-13 | BCS51M | 3C5431 | May 13, 18:30 UTC | May 13, 19:00 UTC | 30m | - |
| 2026-05-12 | BCS51M | 3C1BAD | May 12, 18:20 UTC | May 12, 18:50 UTC | 30m | - |
| 2026-05-09 | SEVVK | 4ADACB | May 9, 10:55 UTC | May 9, 11:15 UTC | 20m | - |
| 2026-05-08 | BCS51M | 3C1BAD | May 8, 18:20 UTC | May 8, 18:50 UTC | 30m | - |
| 2026-05-07 | BCS51M | 3C5430 | May 7, 18:20 UTC | May 7, 18:45 UTC | 25m | - |
| 2026-05-06 | BCS51M | 3C1BAC | May 6, 18:25 UTC | May 6, 18:50 UTC | 25m | - |
| 2026-05-05 | BCS51M | 3C1BAE | May 5, 18:20 UTC | May 5, 18:50 UTC | 30m | - |
| 2026-05-04 | BCS51M | 3C5422 | May 4, 18:25 UTC | May 4, 18:50 UTC | 26m | - |
| 2026-04-30 | BCS51M | 3C5426 | Apr 30, 18:25 UTC | Apr 30, 18:50 UTC | 25m | - |
| 2026-04-30 | SEVVK | 4ADACB | Apr 30, 15:05 UTC | Apr 30, 15:55 UTC | 50m | - |
| 2026-04-29 | BCS51M | 3C1BAC | Apr 29, 18:25 UTC | Apr 29, 18:45 UTC | 20m | - |
| 2026-04-28 | BCS51M | 3C1BAC | Apr 28, 18:25 UTC | Apr 28, 18:55 UTC | 30m | - |
| 2026-04-27 | BCS51M | 3C5426 | Apr 27, 18:30 UTC | Apr 27, 19:00 UTC | 30m | - |